Regional Weather Roundup
Issued by NWS

Current Version | Previous Version | Text Only | Print | Product List | Glossary On
Versions: 1 2 3 4 5 6 7 8 9 10 11 12 13 14 15 16 17 18 19 20 21 22 23 24 25 26 27 28 29 30 31 32 33 34 35 36 37 38 39 40 41 42 43 44 45 46 47 48 49 50
000
ASUS42 KTBW 012210
RWRFL
FLORIDA REGIONAL WEATHER ROUNDUP
NATIONAL WEATHER SERVICE TAMPA BAY RUSKIN FL
500 PM EST SUN FEB 01 2015

NOTE: "FAIR" INDICATES FEW OR NO CLOUDS BELOW 12,000 FEET WITH NO
SIGNIFICANT WEATHER AND/OR OBSTRUCTIONS TO VISIBILITY.


FLZ001>010-012>015-112-114-115-012300-
PANHANDLE FLORIDA

CITY           SKY/WX    TMP DP  RH WIND       PRES   REMARKS
PENSACOLA      CLOUDY    63  62  97 S7        29.93F
PENSACOLA NAS  CLOUDY    65  64  97 S9        29.93S
MILTON NAS     CLOUDY    63  61  93 S10       29.93F
CRESTVIEW      CLOUDY    64  32  30 S10       29.97F
DUKE FIELD     RAIN      63  62  95 S13       29.96S
VALPARAISO     LGT RAIN  63  61  96 S14       29.95S FOG
MARY ESTHER    CLOUDY    63  60  90 S9        29.94S
TRI COUNTY     LGT RAIN  61  60  97 SE6       29.99F FOG
PANAMA CITY    RAIN      63  61  94 SE10      29.98F FOG
TYNDALL AFB    DRIZZLE   63  61  94 SE14      29.99F FOG
APALACHICOLA   CLOUDY    66  58  75 SE9       30.02S

STATION/POSITION SKY/WX   TEMP    WIND        PRES    WAVE   SWELL
                          AIR SEA DIR/SP/G            HT/PER HT/PER
                          (F)     (DEG/KT/KT) (MB)    (FT/S) (FT/S)
30.1N   87.6W              65 62  170/ 10/ 12 1012.8F   6/ 8   5/ 8
29.2N   88.2W              70 69  240/ 12/ 14 1013.9S   5/ 7   5/ 7
28.7N   86.0W              70 69  180/ 19/ 23 1015.0    8/ 8
PANAMA CITY BEAC           61 60  130/ 16/ 18 1014.7F
CAPE SAN BLAS    NOT AVBL
TOWER C                    65     160/ 21/ 23 1016.0F
28.5N   84.5W              69 67  160/ 19/ 23 1016.4S   7/ 6

$$
FLZ011-016>038-118-127-128-134-139-239-012300-
NORTH FLORIDA

CITY           SKY/WX    TMP DP  RH WIND       PRES   REMARKS
MARIANNA       LGT RAIN  61  60  97 SE8       29.99F
TALLAHASSEE    CLOUDY    66  50  56 S14       30.05S
PERRY          PTSUNNY   70  51  51 S12G17    30.05F
CROSS CITY       N/A     72  50  45 S12       30.04F
LAKE CITY      PTSUNNY   72  46  40 S10G16    30.05S
GAINESVILLE    MOSUNNY   71  48  43 SE13      30.05F
MAYPORT NAS    SUNNY     66  55  67 S16       30.07F
JACKSONVILLE   MOSUNNY   69  52  54 S15       30.05F
JAX NAS        MOSUNNY   73  48  41 S12       30.06F
JAX CRAIG      SUNNY     67  52  58 S13       30.07F
JAX CECIL      MOSUNNY   72  50  46 S7        30.05F
FERNANDINA BEA FAIR      70  55  60 S15       30.05F
ST AUGUSTINE   SUNNY     67  55  65 S16G25    30.07F

STATION/POSITION SKY/WX   TEMP    WIND        PRES    WAVE   SWELL
                          AIR SEA DIR/SP/G            HT/PER HT/PER
                          (F)     (DEG/KT/KT) (MB)    (FT/S) (FT/S)
SHELL POINT                60     150/  8/  9   N/A
KEATON BEACH               64     160/ 14/ 16 1017.9F
CEDAR KEY                  64     200/  7/  9 1018.5F
FERNANDINA                 65 55  160/ 10/ 19 1017.3F
30.7N   81.3W                 58                N/A     2/11   2/11
MAYPORT                    66 58  160/  9/ 15 1018.2F
31.4N   80.9W              59 56  130/  6/  8 1018.3F   2/11   2/11
ST AUGUSTINE               62     160/ 18/ 19 1018.8F

$$
FLZ040-043>046-052-053-057-058-063-144-012300-
INTERIOR CENTRAL FLORIDA

CITY           SKY/WX    TMP DP  RH WIND       PRES   REMARKS
OCALA          MOSUNNY   73  46  38 S14G23    30.06F
THE VILLAGES     N/A     73  50  43 SE10      29.97F
LEESBURG       MOSUNNY   70  51  51 S9        30.08F
SANFORD        MOSUNNY   73  49  42 SE14      30.08F
ORLANDO EXEC   MOSUNNY   73  51  46 S12G18    30.08F
ORLANDO INTL   MOSUNNY   72  52  49 SE12      30.09F
KISSIMMEE      SUNNY     72  54  53 SE12      30.09F
WINTER HAVEN   SUNNY     74  49  41 S12       30.09F
LAKELAND       SUNNY     73  50  43 MISG      30.07F
BARTOW         SUNNY     72  50  46 SE12      30.09S
OKEECHOBEE     SUNNY     72  55  56 SE8       30.10F

$$
FLZ041-047-054-059-064-141-147-012300-
EAST CENTRAL FLORIDA

CITY           SKY/WX    TMP DP  RH WIND       PRES   REMARKS
ORMOND BEACH   MOSUNNY   70  50  49 SE12      30.09F
DAYTONA BEACH  MOSUNNY   71  48  43 SE8G17    30.09F
DELAND         CLEAR     72  48  43 S12       30.09F
NEW SMYRNA BEA MOSUNNY   72  50  46 SE16G23   30.11F
JFK SPACE CTR  SUNNY     69  51  51 S10       30.11S
TITUSVILLE     MOSUNNY   68  52  56 SE17      30.12S
CAPE CANAVERAL SUNNY     68  55  61 S13       30.11S
PATRICK AFB    SUNNY     68  58  70 SE13      30.11F
MELBOURNE      SUNNY     69  55  60 SE16      30.11F
VERO BEACH     MOSUNNY   70  56  61 SE14      30.12F
FT PIERCE      SUNNY     70  57  63 SE17G24   30.11F
STUART         MOSUNNY   70  57  64 SE15G22   30.12F

STATION/POSITION SKY/WX   TEMP    WIND        PRES    WAVE   SWELL
                          AIR SEA DIR/SP/G            HT/PER HT/PER
                          (F)     (DEG/KT/KT) (MB)    (FT/S) (FT/S)
28.5N   80.2W              68 70  150/ 16/ 19 1019.8F
28.9N   78.5W              68 75  130/ 17/ 21 1021.5F   6/10   5/10
TRIDENT PIER               67 63  140/  8/ 14 1020.3F
28.4N   80.5W                 63                N/A     3/ 5   2/11
27.6N   80.2W                 65                N/A     5/11   2/11

$$
FLZ050-056-061-142-242-148-248-149-249-151-251-155-255-
160-260-012300-
WEST CENTRAL FLORIDA

CITY           SKY/WX    TMP DP  RH WIND       PRES   REMARKS
CRYSTAL RIVER  MOCLDY    73  46  38 SE6       30.05F
INVERNESS      FAIR      73  46  38 S9        30.06F
BROOKSVILLE    SUNNY     74  48  39 SE12      30.06F
ZEPHYRHILLS    FAIR      73  46  38 SE9       30.07F
CLEARWATER     SUNNY     74  53  48 S13       30.06S
TAMPA INTL     SUNNY     71  54  54 S9        30.06F
TAMPA EXEC       N/A    N/A N/A N/A MISG        N/A
PLANT CITY       N/A    N/A N/A N/A MISG        N/A
MACDILL AFB    SUNNY     73  59  62 SW12      30.06F
PETER O KNIGHT SUNNY     75  55  50 S8        30.06S
ST PETERSBURG  SUNNY     72  52  49 SW12      30.04F
SARASOTA       SUNNY     72  52  49 S15       30.05S
VENICE         FAIR      72  55  56 S10G17    30.07F

STATION/POSITION SKY/WX   TEMP    WIND        PRES    WAVE   SWELL
                          AIR SEA DIR/SP/G            HT/PER HT/PER
                          (F)     (DEG/KT/KT) (MB)    (FT/S) (FT/S)
CEDAR KEY                  64     200/  7/  9 1018.5F
28.5N   84.5W              69 67  160/ 19/ 23 1016.4S   7/ 6
27.3N   84.3W                 72                N/A     7/ 6
CLEARWATER BEACH           71 61  170/ 10/ 13 1017.6S
MIDDLE TAMPA BAY           69     220/ 13/ 14 1017.9F
VENICE                     67 64  160/  9/ 10 1017.8F

$$
FLZ066-069-070-075>078-162-262-165-265-012300-
SOUTHWEST FLORIDA AND KEYS

CITY           SKY/WX    TMP DP  RH WIND       PRES   REMARKS
PUNTA GORDA    SUNNY     76  51  41 S12       30.08F
FT MYERS       SUNNY     75  55  49 SW10      30.06S
SOUTHWEST INTL MOSUNNY   77  52  41 SE10      30.07S
NAPLES         MOSUNNY   76  54  46 S13       30.07S
MARCO ISLAND   CLEAR    N/A N/A N/A S13       30.07F
IMMOKALEE      PTCLDY   N/A N/A N/A SE12G17   30.08F
MARATHON       SUNNY     73  63  70 E8G17     30.09S
KEY WEST NAS   MOSUNNY   74  63  68 E14       30.07F
KEY WEST INTL  SUNNY     73  64  73 E15       30.08F

STATION/POSITION SKY/WX   TEMP    WIND        PRES    WAVE   SWELL
                          AIR SEA DIR/SP/G            HT/PER HT/PER
                          (F)     (DEG/KT/KT) (MB)    (FT/S) (FT/S)
VENICE                     67 64  160/  9/ 10 1017.8F
NAPLES                     74     170/ 10/ 13 1018.8F
26.0N   85.6W              73 73  150/ 19/ 23 1015.5S   6/ 7
DRY TORTUGAS               73     130/ 14/ 16 1017.7F
NW FL BAY                  71     120/ 12/ 14 1019.5F
SAND KEY                   74     120/ 19/ 22 1018.0F
SOMBRERO KEY               74     110/ 19/ 20 1019.3F
LONG KEY                   72 69  130/ 14/ 16 1020.0F
MOLASSES REEF              73 76  130/ 15/ 17 1019.3F

$$
FLZ067-068-071>074-168-172>174-012300-
SOUTHEAST FLORIDA

CITY           SKY/WX    TMP DP  RH WIND       PRES   REMARKS
W PALM BEACH   MOSUNNY   74  53  48 SE15      30.10F
FT LAUDER-EXEC MOSUNNY   73  55  53 E15       30.11F
FT LAUDERDALE  PTSUNNY   71  58  63 SE15      30.11F
POMPANO BEACH  PTSUNNY   75  56  51 SE14      30.12F
PEMBROKE PINES CLOUDY    73  57  57 SE14      30.13F
OPA LOCKA      CLOUDY    73  57  57 SE12      30.12S
MIAMI          MOSUNNY   73  56  54 SE14      30.12F
WEST KENDALL   MOSUNNY   74  57  55 E13       30.12S
HOMESTEAD      MOSUNNY   72  59  64 E8        30.12S

STATION/POSITION SKY/WX   TEMP    WIND        PRES    WAVE   SWELL
                          AIR SEA DIR/SP/G            HT/PER HT/PER
                          (F)     (DEG/KT/KT) (MB)    (FT/S) (FT/S)
PORT EVERGLADES            71     130/ 10/ 15 1019.7


USA.gov is the U.S. government's official web portal to all federal, state and local government web resources and services.